[[{"header":{"parameterUnit":"m.s-1","parameterCategory":1,"la1":30.2991,"la2":30.254,"lo1":-89.0895,"lo2":-89.0444,"dy":0.0017,"dx":0.0017,"nx":28,"ny":28,"refTime":"2023-07-27T09:00:00:Z","depth":0,"parameterNumber":2,"parameterNumberName":"U-component_of_WINDS"},"data":[0,0,0,0,0,0,0,0,0,0,0,0,0,0,0,0,0,0,0,0,0,0,0,0,0,0,0,0,0,0,0,0,0,0,0,0,0,0,0,0,0,0,0,0,0,0,0,0,0,0,0,0,0,0,0,0,0,0,2.4682,2.4682,0,2.4701,2.4701,2.4702,2.464,2.4638,2.4636,2.4634,2.4655,2.4658,2.466,0,0,0,0,0,0,0,0,0,0,0,0,0,2.4592,2.4594,2.4682,2.4682,2.4683,2.4701,2.4701,2.4702,2.464,2.4638,2.4636,2.4634,2.4655,2.4657,2.466,0,0,0,0,0,0,0,0,0,0,0,0,0,2.4623,2.4594,2.4682,2.4654,2.4652,2.4701,2.4701,2.4702,2.4641,2.4638,2.4635,2.4632,2.4654,2.4657,2.466,2.4738,0,0,2.4671,2.4672,0,0,0,0,0,0,0,0,2.4621,2.4626,2.4658,2.4656,2.4654,2.4665,2.4677,2.4714,2.4641,2.4645,2.4634,2.4631,2.4661,2.4664,2.4673,2.4739,2.474,2.4671,2.4673,2.4675,2.4676,0,0,0,0,0,0,0,2.4619,2.4625,2.469,2.4659,2.4656,2.464,2.4642,2.4684,2.4669,2.4645,2.464,2.4643,2.4659,2.467,2.4673,2.474,2.4671,2.4674,2.4676,2.4678,2.4865,2.4868,0,0,0,0,0,0,2.4621,2.4624,2.4689,2.469,2.463,2.4644,2.4646,2.4664,2.4668,2.4666,2.4645,2.464,2.4666,2.467,2.4674,2.4761,2.4675,2.4678,2.468,2.4862,2.4866,2.4869,0,0,0,0,0,0,2.4619,2.4627,2.4688,2.4656,2.4662,2.4649,2.467,2.4666,2.4677,2.4669,2.4666,2.4659,2.4664,2.4669,2.4721,2.4761,2.468,2.4683,2.4859,2.4863,2.4867,2.4938,0,0,0,0,0,0,2.4617,2.4627,2.4657,2.4657,2.4664,2.4736,2.4673,2.4669,2.4683,2.4676,2.4681,2.4679,2.4662,2.4716,2.4725,2.4764,2.4685,2.4855,2.4861,2.4866,2.4932,2.4945,2.4955,0,0,0,0,0,2.4614,2.4677,2.4658,2.4667,2.4701,2.4738,2.4743,2.4721,2.4687,2.4716,2.471,2.4679,2.4756,2.4722,2.4731,2.4772,2.4852,2.4859,2.4865,2.4927,2.4942,2.4955,0,0,0,0,0,0,2.4684,2.4677,2.4656,2.4722,2.4731,2.4728,2.4764,2.4738,2.4758,2.4751,2.4724,2.4725,2.4781,2.4783,2.4745,2.4845,2.4798,2.4807,2.4842,2.4856,2.4867,2.4865,2.4688,0,0,0,0,0,2.4707,2.4737,2.473,2.4789,2.4794,2.4778,2.4794,2.4776,2.4785,2.4789,2.4786,2.4796,2.4822,2.484,2.4863,2.4933,2.4931,2.4965,2.4977,2.4986,2.4993,2.5025,2.5039,2.489,2.489,2.489,0,0,2.4755,2.4755,2.4776,2.4802,2.4807,2.4838,2.4782,2.4819,2.4841,2.4794,2.4842,2.4841,2.485,2.4909,2.4936,2.4912,2.5034,2.4994,2.5002,2.5004,2.5034,2.5048,2.506,2.4895,2.4894,2.4893,0,0,2.4857,2.4862,2.4909,2.4914,2.4921,2.491,2.4921,2.4922,2.4918,2.4966,2.493,2.4957,2.5003,2.5009,2.5018,2.512,2.5091,2.5128,2.5187,2.5219,2.5231,2.5241,2.5273,2.5285,2.5136,2.5136,2.5136,0,2.4916,2.4961,2.4936,2.4974,2.4985,2.4943,2.4989,2.4996,2.5011,2.5019,2.4993,2.5047,2.505,2.5109,2.5133,2.5144,2.5153,2.5127,2.5231,2.5241,2.525,2.528,2.5293,2.514,2.514,2.5139,2.5139,0,2.503,2.5062,2.51,2.5113,2.5128,2.5171,2.5151,2.517,2.5151,2.5142,2.5189,2.5191,2.5212,2.5226,2.5208,2.5281,2.5265,2.5236,2.5187,2.5269,2.5297,2.5309,2.5146,2.5145,2.5144,2.5143,0,0,2.5178,2.5175,2.5188,2.5192,2.5196,2.5219,2.5259,2.5278,2.5293,2.5305,2.5335,2.5374,2.5344,2.5355,2.5338,2.5367,2.5441,2.5332,2.5332,2.5349,2.5517,2.5537,2.5551,2.5423,2.5425,2.5427,2.5515,0,2.5275,2.534,2.5318,2.5384,2.5411,2.537,2.5403,2.5409,2.5401,2.5422,2.5414,2.544,2.5403,2.5408,2.5435,2.5427,2.5474,2.5421,2.5449,2.545,2.5444,2.5566,2.5588,2.5671,2.5526,2.5528,2.5529,0,2.5398,2.5411,2.5479,2.5474,2.5485,2.5515,2.5529,2.5551,2.5555,2.5547,2.5558,2.5533,2.5569,2.5523,2.5571,2.5535,2.5545,2.5543,2.5546,2.5545,2.5493,2.5566,2.5697,2.5708,2.5547,2.5546,2.5545,0,2.5493,2.5529,2.5573,2.5578,2.5574,2.5596,2.5596,2.5597,2.5609,2.5622,2.5628,2.5646,2.5655,2.5669,2.5649,2.5617,2.5698,2.5651,2.5691,2.5691,2.5708,2.5706,2.5839,2.572,2.572,2.572,2.572,0,2.5602,2.5644,2.5615,2.5642,2.5687,2.566,2.5706,2.5701,2.5702,2.5726,2.5694,2.5717,2.5691,2.5712,2.5697,2.5737,2.5743,2.5736,2.573,2.5737,2.5737,2.5741,2.5733,2.5723,2.5722,2.5722,2.5721,0,2.5716,2.5698,2.5742,2.5734,2.5733,2.5766,2.5759,2.5783,2.5772,2.5803,2.5809,2.5793,2.5815,2.5797,2.582,2.5809,2.5861,2.585,2.5859,2.5854,2.5893,2.5888,2.6031,2.6047,2.5921,2.5922,2.5923,0,2.5785,2.5816,2.581,2.5823,2.5824,2.5846,2.5857,2.5832,2.5845,2.585,2.5872,2.5892,2.5905,2.5943,2.5932,2.5949,2.5935,2.5984,2.5937,2.5941,2.5931,2.5928,2.5929,2.5992,2.5994,2.5995,2.5996,0,2.5908,2.5896,2.5913,2.5926,2.5939,2.5948,2.5955,2.5968,2.5942,2.5958,2.5979,2.5989,2.601,2.6029,2.6041,2.604,2.6013,2.6011,2.602,2.6025,2.6028,2.6023,2.588,2.6007,2.6006,2.6006,2.6005,2.6004,2.5999,2.6022,2.602,2.6039,2.6041,2.6047,2.6067,2.6058,2.6075,2.6089,2.6074,2.6099,2.6099,2.6113,2.6115,2.6133,2.6113,2.6128,2.6131,2.6134,2.6137,2.6027,2.6136,2.6136,2.6136,2.6135,2.6135,0,2.6116,2.6112,2.613,2.6138,2.6152,2.6125,2.613,2.6143,2.6165,2.6168,2.6181,2.6204,2.6221,2.6211,2.6225,2.6242,2.6229,2.6246,2.6243,2.6242,2.6157,2.6145,2.6255,2.6255,2.6255,2.6255,2.6255,2.6255,2.6179,2.6216,2.6204,2.6241,2.6237,2.626,2.6265,2.627,2.6271,2.6297,2.631,2.6303,2.63,2.6313,2.6327,2.6324,2.6329,2.6349,2.6341,2.6261,2.6249,2.6237,2.6226,2.6351,2.6352,2.6424,2.6425,2.6425]},{"header":{"parameterUnit":"m.s-1","parameterCategory":1,"la1":30.2991,"la2":30.254,"lo1":-89.0895,"lo2":-89.0444,"dy":0.0017,"dx":0.0017,"nx":28,"ny":28,"refTime":"2023-07-27T09:00:00:Z","depth":0,"parameterNumber":3,"parameterNumberName":"V-component_of_WINDS"},"data":[0,0,0,0,0,0,0,0,0,0,0,0,0,0,0,0,0,0,0,0,0,0,0,0,0,0,0,0,0,0,0,0,0,0,0,0,0,0,0,0,0,0,0,0,0,0,0,0,0,0,0,0,0,0,0,0,0,0,1.7926,1.7927,0,1.8052,1.8054,1.8055,1.8083,1.8082,1.8082,1.8081,1.8207,1.8211,1.8215,0,0,0,0,0,0,0,0,0,0,0,0,0,1.7705,1.7709,1.7926,1.7927,1.7929,1.8052,1.8054,1.8055,1.8084,1.8082,1.8081,1.808,1.8206,1.8211,1.8216,0,0,0,0,0,0,0,0,0,0,0,0,0,1.7813,1.771,1.7925,1.7958,1.7962,1.8052,1.8054,1.8056,1.8084,1.8082,1.8081,1.808,1.8204,1.821,1.8216,1.8282,0,0,1.8236,1.8238,0,0,0,0,0,0,0,0,1.7807,1.7821,1.7951,1.7956,1.7961,1.8051,1.8022,1.8131,1.8084,1.8037,1.8081,1.8079,1.8156,1.8166,1.8193,1.8288,1.8293,1.8236,1.824,1.8243,1.8244,0,0,0,0,0,0,0,1.7799,1.7816,1.7976,1.7953,1.7959,1.7965,1.7979,1.8043,1.8102,1.8041,1.8044,1.8058,1.8158,1.8186,1.8196,1.8295,1.8236,1.8242,1.8245,1.8248,1.8448,1.845,0,0,0,0,0,0,1.7787,1.7809,1.7972,1.7979,1.7879,1.797,1.7985,1.8023,1.8102,1.8113,1.8059,1.8059,1.8176,1.8188,1.82,1.8281,1.8243,1.8248,1.8252,1.8447,1.8448,1.845,0,0,0,0,0,0,1.7782,1.7801,1.7967,1.7895,1.7917,1.7975,1.8017,1.8026,1.8055,1.8116,1.8126,1.8078,1.8176,1.8191,1.8261,1.8286,1.8251,1.8257,1.8445,1.8447,1.8449,1.8443,0,0,0,0,0,0,1.7775,1.7799,1.7825,1.7896,1.792,1.8026,1.8019,1.803,1.8066,1.8067,1.8136,1.8146,1.8176,1.8252,1.8267,1.8294,1.8262,1.8443,1.8446,1.8449,1.8442,1.8445,1.8448,0,0,0,0,0,1.7767,1.7818,1.7827,1.7846,1.7955,1.8028,1.8042,1.8077,1.8068,1.8094,1.8133,1.8143,1.8281,1.8258,1.8276,1.8305,1.8441,1.8445,1.8448,1.844,1.8445,1.8448,0,0,0,0,0,0,1.7749,1.7828,1.7838,1.7914,1.7964,1.8032,1.8067,1.808,1.8134,1.8132,1.8172,1.8187,1.8254,1.8287,1.8261,1.8372,1.836,1.8368,1.8348,1.8353,1.8356,1.8346,1.8267,0,0,0,0,0,1.7753,1.7807,1.7873,1.7933,1.7958,1.8008,1.8041,1.8064,1.8117,1.8138,1.8182,1.8232,1.8287,1.8322,1.8375,1.8447,1.8461,1.8475,1.8478,1.8481,1.8486,1.8525,1.8532,1.8462,1.8462,1.8462,0,0,1.7764,1.7814,1.7845,1.7931,1.7972,1.8026,1.8026,1.8083,1.8122,1.8146,1.8215,1.8249,1.8307,1.8378,1.8411,1.8407,1.8509,1.8485,1.8487,1.8491,1.8529,1.8536,1.8542,1.8464,1.8464,1.8463,0,0,1.7809,1.7853,1.7908,1.7949,1.8012,1.8045,1.8058,1.8125,1.8148,1.8218,1.8237,1.8284,1.8377,1.8418,1.845,1.851,1.8521,1.8527,1.8544,1.8581,1.8586,1.8592,1.8612,1.8619,1.8532,1.8532,1.8532,0,1.7814,1.7896,1.7934,1.799,1.8026,1.8051,1.8105,1.8144,1.822,1.8244,1.8239,1.8356,1.8397,1.8477,1.8491,1.8517,1.8532,1.8519,1.8583,1.8588,1.8594,1.8613,1.8621,1.8532,1.8532,1.8532,1.8532,0,1.7898,1.7955,1.7991,1.8065,1.8106,1.8161,1.8205,1.8241,1.826,1.8292,1.8362,1.8412,1.8476,1.8496,1.8515,1.8578,1.8574,1.8575,1.8565,1.86,1.8619,1.8627,1.8532,1.8532,1.8532,1.8532,0,0,1.7936,1.803,1.8042,1.8076,1.8147,1.8191,1.8246,1.8309,1.8339,1.839,1.8437,1.8515,1.8516,1.8553,1.8576,1.8609,1.8652,1.8607,1.8609,1.8612,1.8723,1.8721,1.8729,1.866,1.8661,1.8663,1.8718,0,1.7989,1.809,1.8125,1.8207,1.8259,1.8283,1.8331,1.8379,1.8411,1.8459,1.8493,1.8547,1.8546,1.8568,1.8602,1.864,1.8674,1.8636,1.8702,1.8704,1.8686,1.8739,1.8738,1.8787,1.8726,1.8727,1.8728,0,1.8066,1.8119,1.8207,1.8271,1.8294,1.8337,1.8396,1.8442,1.8496,1.8517,1.8558,1.8579,1.8636,1.8622,1.87,1.8673,1.8702,1.8724,1.8727,1.8734,1.8717,1.8747,1.8804,1.8811,1.874,1.8739,1.8738,0,1.8083,1.8177,1.8242,1.827,1.8346,1.8375,1.8408,1.8461,1.8496,1.8548,1.8571,1.8628,1.8659,1.8702,1.8737,1.8724,1.8812,1.8801,1.8829,1.8828,1.8846,1.8844,1.8908,1.8866,1.8866,1.8866,1.8866,0,1.8139,1.8191,1.825,1.829,1.8349,1.8388,1.8445,1.8479,1.8525,1.8571,1.8595,1.8637,1.8681,1.8728,1.8755,1.8815,1.8829,1.8846,1.8853,1.8844,1.8842,1.8863,1.886,1.8868,1.8867,1.8867,1.8867,0,1.8168,1.821,1.8282,1.8348,1.8365,1.8406,1.8462,1.85,1.8533,1.859,1.8606,1.8656,1.8713,1.8752,1.8825,1.8843,1.8908,1.8914,1.889,1.8893,1.8918,1.8915,1.8997,1.9009,1.8959,1.896,1.896,0,1.82,1.8242,1.8312,1.8345,1.8378,1.843,1.8466,1.8505,1.8542,1.8606,1.8636,1.8695,1.8744,1.8833,1.8875,1.893,1.8938,1.8963,1.8946,1.8935,1.8937,1.8934,1.8937,1.8965,1.8965,1.8966,1.8966,0,1.8253,1.8272,1.8324,1.8382,1.8425,1.8473,1.8521,1.8546,1.8593,1.8632,1.8691,1.8729,1.8803,1.886,1.892,1.8952,1.8966,1.8971,1.898,1.8971,1.8955,1.8963,1.8895,1.8969,1.8968,1.8968,1.8968,1.8968,1.8285,1.8322,1.8377,1.8434,1.8474,1.8518,1.8557,1.8595,1.8645,1.8709,1.8729,1.8789,1.8841,1.8922,1.8955,1.9002,1.9,1.9013,1.9017,1.9019,1.9018,1.8948,1.9013,1.9013,1.9013,1.9013,1.9013,0,1.8338,1.8374,1.8426,1.8493,1.8537,1.8548,1.8601,1.8637,1.869,1.8738,1.8785,1.8852,1.8907,1.8954,1.9011,1.9039,1.9047,1.9053,1.905,1.9057,1.9018,1.9003,1.9045,1.9045,1.9045,1.9045,1.9045,1.9045,1.8371,1.8434,1.8458,1.8541,1.8577,1.8638,1.8667,1.8707,1.8745,1.8819,1.8865,1.8896,1.8943,1.9003,1.9053,1.9066,1.9085,1.9089,1.9102,1.9064,1.906,1.9057,1.9044,1.9093,1.9093,1.9138,1.9138,1.9139]}]]